When you browse on this site, cookies collect data to enhance your experience and personalize the content and advertising you see.
Visit our Privacy Policy to learn more. By continuing to use the site, you agree to this use of cookies and data.
  • In Hungary
  • List of Countries
  • For 7 days
  • Water Temperature
  • Satellite Maps
  • Weather Map
  • News
  • Weather Widgets
  • user-avatar
    Login

    Hourly Weather Tlaxcala

    Today, 22 February, Friday

    Time Temperature Precipitation Wind Pressure Humidity
    00:00 +13°C° 0 mm 1 mps 576 mmHg 42%
    01:00 +13°C° 0 mm 1 mps 575 mmHg 43%
    02:00 +12°C° 0 mm 1 mps 575 mmHg 44%
    03:00 +12°C° 0 mm 1 mps 575 mmHg 44%
    04:00 +12°C° 0 mm 1 mps 575 mmHg 44%
    05:00 +11°C° 0 mm 1 mps 575 mmHg 44%
    06:00 +13°C° 0 mm 1 mps 576 mmHg 39%
    07:00 +14°C° 0 mm 0 mps 578 mmHg 34%
    08:00 +16°C° 0 mm 0 mps 579 mmHg 29%
    09:00 +20°C° 0 mm 1 mps 580 mmHg 25%
    10:00 +22°C° 0 mm 1 mps 580 mmHg 22%
    11:00 +25°C° 0 mm 1 mps 581 mmHg 18%
    12:00 +25°C° 0 mm 2 mps 581 mmHg 18%
    13:00 +26°C° 0 mm 3 mps 581 mmHg 17%
    14:00 +26°C° 0 mm 3 mps 580 mmHg 17%
    15:00 +25°C° 0 mm 3 mps 580 mmHg 20%
    16:00 +23°C° 0 mm 4 mps 579 mmHg 23%
    17:00 +22°C° 0 mm 4 mps 579 mmHg 25%
    18:00 +20°C° 0 mm 3 mps 579 mmHg 30%
    19:00 +19°C° 0 mm 2 mps 579 mmHg 35%
    20:00 +18°C° 0 mm 1 mps 578 mmHg 40%
    21:00 +16°C° 0 mm 1 mps 578 mmHg 41%
    22:00 +16°C° 0 mm 1 mps 578 mmHg 43%
    23:00 +14°C° 0 mm 0 mps 578 mmHg 44%

    Tomorrow, 23 February, Saturday

    Time Temperature Precipitation Wind Pressure Humidity
    00:00 +14°C° 0 mm 0 mps 578 mmHg 47%
    01:00 +13°C° 0 mm 0 mps 577 mmHg 49%
    02:00 +13°C° 0 mm 0 mps 577 mmHg 52%
    03:00 +12°C° 0 mm 0 mps 577 mmHg 54%
    04:00 +12°C° 0 mm 0 mps 576 mmHg 56%
    05:00 +12°C° 0 mm 0 mps 576 mmHg 58%
    06:00 +14°C° 0 mm 1 mps 578 mmHg 54%
    07:00 +16°C° 0 mm 1 mps 579 mmHg 49%
    08:00 +18°C° 0 mm 1 mps 580 mmHg 45%
    09:00 +20°C° 0 mm 1 mps 580 mmHg 39%
    10:00 +22°C° 0 mm 1 mps 581 mmHg 34%
    11:00 +24°C° 0 mm 1 mps 582 mmHg 28%
    12:00 +25°C° 0 mm 1 mps 581 mmHg 26%
    13:00 +25°C° 0 mm 2 mps 581 mmHg 24%
    14:00 +26°C° 0 mm 2 mps 580 mmHg 22%
    15:00 +25°C° 0 mm 2 mps 580 mmHg 26%
    16:00 +24°C° 0 mm 2 mps 580 mmHg 30%
    17:00 +21°C° 0 mm 2 mps 579 mmHg 34%
    18:00 +20°C° 0 mm 3 mps 580 mmHg 38%
    19:00 +19°C° 0 mm 3 mps 580 mmHg 42%
    20:00 +18°C° 0 mm 3 mps 581 mmHg 45%
    21:00 +17°C° 0 mm 2 mps 580 mmHg 49%
    22:00 +16°C° 0 mm 2 mps 580 mmHg 53%
    23:00 +15°C° 0 mm 2 mps 580 mmHg 56%

    Day after tomorrow, 24 February, Sunday

    Time Temperature Precipitation Wind Pressure Humidity
    00:00 +14°C° 0 mm 2 mps 579 mmHg 58%
    01:00 +14°C° 0 mm 1 mps 579 mmHg 60%
    02:00 +13°C° 0 mm 1 mps 578 mmHg 61%
    03:00 +13°C° 0 mm 1 mps 578 mmHg 63%
    04:00 +13°C° 0 mm 1 mps 578 mmHg 65%
    05:00 +12°C° 0 mm 1 mps 578 mmHg 67%
    06:00 +13°C° 0 mm 2 mps 579 mmHg 64%
    07:00 +14°C° 0 mm 2 mps 580 mmHg 61%
    08:00 +16°C° 0 mm 3 mps 581 mmHg 58%
    09:00 +17°C° 0 mm 3 mps 582 mmHg 53%
    10:00 +19°C° 0 mm 3 mps 582 mmHg 48%
    11:00 +21°C° 0 mm 2 mps 583 mmHg 43%
    12:00 +21°C° 0.1 mm 3 mps 582 mmHg 42%
    13:00 +21°C° 0.1 mm 3 mps 582 mmHg 41%
    14:00 +22°C° 0.1 mm 3 mps 581 mmHg 41%
    15:00 +21°C° 0.4 mm 3 mps 581 mmHg 46%
    16:00 +20°C° 0.4 mm 3 mps 580 mmHg 50%
    17:00 +18°C° 0.4 mm 2 mps 580 mmHg 55%
    18:00 +17°C° 0.2 mm 3 mps 580 mmHg 60%
    19:00 +16°C° 0.2 mm 3 mps 580 mmHg 66%
    20:00 +14°C° 0.2 mm 3 mps 580 mmHg 72%
    21:00 +14°C° 0.1 mm 3 mps 580 mmHg 74%
    22:00 +14°C° 0.1 mm 2 mps 580 mmHg 76%
    23:00 +14°C° 0.1 mm 2 mps 580 mmHg 79%

    25 February, Monday

    Time Temperature Precipitation Wind Pressure Humidity
    00:00 +13°C° 0 mm 2 mps 579 mmHg 80%
    01:00 +13°C° 0 mm 2 mps 579 mmHg 81%
    02:00 +13°C° 0 mm 1 mps 578 mmHg 82%
    03:00 +12°C° 0 mm 1 mps 578 mmHg 83%
    04:00 +12°C° 0 mm 1 mps 578 mmHg 84%
    05:00 +12°C° 0 mm 1 mps 578 mmHg 86%
    06:00 +13°C° 0 mm 2 mps 579 mmHg 79%
    07:00 +14°C° 0 mm 2 mps 581 mmHg 73%
    08:00 +16°C° 0 mm 2 mps 582 mmHg 67%
    09:00 +17°C° 0 mm 2 mps 582 mmHg 59%
    10:00 +19°C° 0 mm 2 mps 583 mmHg 50%
    11:00 +21°C° 0 mm 2 mps 583 mmHg 42%
    12:00 +23°C° 0.2 mm 2 mps 583 mmHg 38%
    13:00 +23°C° 0.2 mm 2 mps 582 mmHg 34%
    14:00 +24°C° 0.2 mm 2 mps 582 mmHg 31%
    15:00 +22°C° 0.1 mm 3 mps 581 mmHg 33%
    16:00 +21°C° 0.1 mm 3 mps 581 mmHg 36%
    17:00 +21°C° 0.1 mm 3 mps 581 mmHg 38%
    18:00 +19°C° 0.1 mm 2 mps 581 mmHg 46%
    19:00 +18°C° 0.1 mm 2 mps 581 mmHg 53%
    20:00 +18°C° 0.1 mm 1 mps 581 mmHg 61%
    21:00 +16°C° 0.2 mm 1 mps 581 mmHg 64%
    22:00 +16°C° 0.2 mm 1 mps 580 mmHg 68%
    23:00 +15°C° 0.2 mm 2 mps 580 mmHg 71%

    26 February, Tuesday

    Time Temperature Precipitation Wind Pressure Humidity
    00:00 +15°C° 0 mm 1 mps 580 mmHg 72%
    01:00 +14°C° 0 mm 1 mps 579 mmHg 74%
    02:00 +14°C° 0 mm 1 mps 578 mmHg 76%
    03:00 +13°C° 0 mm 1 mps 578 mmHg 76%
    04:00 +12°C° 0 mm 0 mps 578 mmHg 76%
    05:00 +12°C° 0 mm 0 mps 578 mmHg 76%
    06:00 +13°C° 0 mm 0 mps 579 mmHg 68%
    07:00 +15°C° 0 mm 0 mps 580 mmHg 61%
    08:00 +18°C° 0 mm 1 mps 581 mmHg 53%
    09:00 +20°C° 0 mm 1 mps 582 mmHg 45%
    10:00 +22°C° 0 mm 1 mps 582 mmHg 38%
    11:00 +24°C° 0 mm 1 mps 583 mmHg 30%
    12:00 +25°C° 0 mm 1 mps 582 mmHg 29%
    13:00 +25°C° 0 mm 1 mps 582 mmHg 27%
    14:00 +25°C° 0 mm 2 mps 581 mmHg 26%
    15:00 +24°C° 0.1 mm 2 mps 581 mmHg 30%
    16:00 +23°C° 0.1 mm 1 mps 580 mmHg 35%
    17:00 +22°C° 0.1 mm 1 mps 580 mmHg 40%
    18:00 +21°C° 0.3 mm 1 mps 580 mmHg 44%
    19:00 +20°C° 0.3 mm 1 mps 580 mmHg 49%
    20:00 +19°C° 0.3 mm 1 mps 580 mmHg 53%
    21:00 +18°C° 0.3 mm 1 mps 580 mmHg 55%
    22:00 +18°C° 0.3 mm 1 mps 580 mmHg 57%
    23:00 +16°C° 0.3 mm 1 mps 579 mmHg 60%

    27 February, Wednesday

    Time Temperature Precipitation Wind Pressure Humidity
    00:00 +16°C° 0 mm 1 mps 579 mmHg 61%
    01:00 +15°C° 0 mm 1 mps 578 mmHg 62%
    02:00 +15°C° 0 mm 1 mps 578 mmHg 64%
    03:00 +14°C° 0 mm 1 mps 578 mmHg 65%
    04:00 +14°C° 0 mm 1 mps 578 mmHg 66%
    05:00 +14°C° 0 mm 1 mps 578 mmHg 68%
    06:00 +15°C° 0 mm 1 mps 579 mmHg 62%
    07:00 +18°C° 0 mm 1 mps 580 mmHg 56%
    08:00 +19°C° 0 mm 1 mps 581 mmHg 50%
    09:00 +21°C° 0 mm 1 mps 581 mmHg 42%
    10:00 +23°C° 0 mm 1 mps 582 mmHg 33%
    11:00 +25°C° 0 mm 1 mps 582 mmHg 25%
    12:00 +25°C° 0 mm 1 mps 582 mmHg 23%
    13:00 +26°C° 0 mm 1 mps 581 mmHg 22%
    14:00 +26°C° 0 mm 1 mps 581 mmHg 20%
    15:00 +26°C° 0 mm 1 mps 580 mmHg 23%
    16:00 +25°C° 0 mm 2 mps 580 mmHg 26%
    17:00 +24°C° 0 mm 2 mps 580 mmHg 29%
    18:00 +23°C° 0 mm 1 mps 579 mmHg 34%
    19:00 +21°C° 0 mm 1 mps 579 mmHg 40%
    20:00 +20°C° 0 mm 1 mps 579 mmHg 45%
    21:00 +19°C° 0 mm 1 mps 579 mmHg 48%
    22:00 +18°C° 0 mm 1 mps 579 mmHg 51%
    23:00 +18°C° 0 mm 1 mps 578 mmHg 53%
    Show more